Time,TemperatureF,DewpointF,PressureIn,WindDirection,WindDirectionDegrees,WindSpeedMPH,WindSpeedGustMPH,Humidity,HourlyPrecipIn,Conditions,Clouds,dailyrainin,SoftwareType,DateUTC
2015-02-28 00:05:00,12.3,3.0,30.76,NNW,332,0.0,0.0,66,0.00,,,0.00,weatherlink.com 1.10,2015-02-28 05:05:00,
2015-02-28 00:19:00,11.9,3.0,30.76,NNW,332,0.0,0.0,67,0.00,,,0.00,weatherlink.com 1.10,2015-02-28 05:19:00,
2015-02-28 00:34:00,11.8,3.0,30.76,NNW,332,0.0,0.0,67,0.00,,,0.00,weatherlink.com 1.10,2015-02-28 05:34:00,
2015-02-28 00:49:00,11.0,3.0,30.77,NNW,332,0.0,0.0,69,0.00,,,0.00,weatherlink.com 1.10,2015-02-28 05:49:00,
2015-02-28 01:04:00,11.3,3.0,30.77,NNW,332,0.0,0.0,69,0.00,,,0.00,weatherlink.com 1.10,2015-02-28 06:04:00,
2015-02-28 01:20:00,10.8,3.0,30.77,NNW,332,0.0,0.0,69,0.00,,,0.00,weatherlink.com 1.10,2015-02-28 06:20:00,
2015-02-28 01:35:00,10.8,3.0,30.78,NNW,332,0.0,0.0,70,0.00,,,0.00,weatherlink.com 1.10,2015-02-28 06:35:00,
2015-02-28 01:50:00,11.8,4.0,30.78,NNW,333,1.0,2.0,70,0.00,,,0.00,weatherlink.com 1.10,2015-02-28 06:50:00,
2015-02-28 02:05:00,12.7,4.0,30.78,North,8,0.0,0.0,69,0.00,,,0.00,weatherlink.com 1.10,2015-02-28 07:05:00,
2015-02-28 02:20:00,12.9,4.0,30.77,NNE,16,0.0,0.0,68,0.00,,,0.00,weatherlink.com 1.10,2015-02-28 07:20:00,
2015-02-28 02:35:00,13.1,4.0,30.77,NNE,12,0.0,3.0,67,0.00,,,0.00,weatherlink.com 1.10,2015-02-28 07:35:00,
2015-02-28 02:50:00,13.1,4.0,30.77,ENE,70,0.0,2.0,66,0.00,,,0.00,weatherlink.com 1.10,2015-02-28 07:50:00,
2015-02-28 03:05:00,13.1,4.0,30.77,North,356,0.0,3.0,66,0.00,,,0.00,weatherlink.com 1.10,2015-02-28 08:05:00,
2015-02-28 03:20:00,13.2,3.0,30.77,SE,143,0.0,3.0,65,0.00,,,0.00,weatherlink.com 1.10,2015-02-28 08:20:00,
2015-02-28 03:35:00,13.1,3.0,30.77,NNE,29,1.0,3.0,65,0.00,,,0.00,weatherlink.com 1.10,2015-02-28 08:35:00,
2015-02-28 03:50:00,12.7,3.0,30.77,North,360,0.0,2.0,65,0.00,,,0.00,weatherlink.com 1.10,2015-02-28 08:50:00,
2015-02-28 04:05:00,11.7,3.0,30.77,North,354,1.0,2.0,67,0.00,,,0.00,weatherlink.com 1.10,2015-02-28 09:05:00,
2015-02-28 04:20:00,11.0,3.0,30.77,NNW,327,0.0,1.0,69,0.00,,,0.00,weatherlink.com 1.10,2015-02-28 09:20:00,
2015-02-28 04:35:00,11.1,2.0,30.77,NNE,27,0.0,1.0,68,0.00,,,0.00,weatherlink.com 1.10,2015-02-28 09:35:00,
2015-02-28 04:50:00,10.7,2.0,30.78,NNW,344,0.0,1.0,69,0.00,,,0.00,weatherlink.com 1.10,2015-02-28 09:50:00,
2015-02-28 05:05:00,10.9,3.0,30.78,NNE,15,0.0,1.0,69,0.00,,,0.00,weatherlink.com 1.10,2015-02-28 10:05:00,
2015-02-28 05:20:00,10.8,3.0,30.79,NNE,16,0.0,1.0,69,0.00,,,0.00,weatherlink.com 1.10,2015-02-28 10:20:00,
2015-02-28 05:35:00,11.3,3.0,30.78,North,350,2.0,3.0,69,0.00,,,0.00,weatherlink.com 1.10,2015-02-28 10:35:00,
2015-02-28 05:50:00,11.8,3.0,30.79,NNE,27,3.0,3.0,68,0.00,,,0.00,weatherlink.com 1.10,2015-02-28 10:50:00,
2015-02-28 06:05:00,12.0,3.0,30.79,NE,37,0.0,4.0,67,0.00,,,0.00,weatherlink.com 1.10,2015-02-28 11:05:00,
2015-02-28 06:20:00,12.1,3.0,30.80,NE,34,0.0,1.0,67,0.00,,,0.00,weatherlink.com 1.10,2015-02-28 11:20:00,
2015-02-28 06:35:00,12.2,3.0,30.80,East,91,0.0,1.0,67,0.00,,,0.00,weatherlink.com 1.10,2015-02-28 11:35:00,
2015-02-28 06:50:00,12.6,4.0,30.81,North,359,0.0,3.0,67,0.00,,,0.00,weatherlink.com 1.10,2015-02-28 11:50:00,
2015-02-28 07:05:00,12.9,3.0,30.81,NE,44,1.0,2.0,66,0.00,,,0.00,weatherlink.com 1.10,2015-02-28 12:05:00,
2015-02-28 07:20:00,13.1,4.0,30.81,NE,37,2.0,3.0,67,0.00,,,0.00,weatherlink.com 1.10,2015-02-28 12:20:00,
2015-02-28 07:35:00,13.4,4.0,30.81,NE,34,0.0,4.0,66,0.00,,,0.00,weatherlink.com 1.10,2015-02-28 12:35:00,
2015-02-28 07:50:00,13.7,4.0,30.82,NE,39,2.0,3.0,65,0.00,,,0.00,weatherlink.com 1.10,2015-02-28 12:50:00,
2015-02-28 08:05:00,14.1,4.0,30.82,NE,50,1.0,4.0,65,0.00,,,0.00,weatherlink.com 1.10,2015-02-28 13:05:00,